www.pogodaiklimat.ru

Погода и климат >> Архив погоды >> Австралия >> Alice Springs Airport


ПОГОДА в Alice Springs Airport

  • Прогноз погоды в Alice Springs Airport
  • Монитор погоды в Alice Springs Airport
  • Климат города

АРХИВ ПОГОДЫ в Alice Springs Airport

Время (UTC), дата Ветер
(напр.,м/с)
 
Видим.   Явления Облачность Т
(С)
Тd
(С)
f
(%)
Тe
(С)
Тes
(С)
Комфортность P
(гПа)
Po
(гПа)
Тmin
(С)
Tmax
(С)
R
(мм)
R24
(мм)
S
(см)
05 16.01 В 6 н/о н/о +34.3 -0.4 11 +31 +31 жарко 1006.2 946.5
06 16.01 В 6 н/о н/о +35.2 -1.0 10 +31 +31 жарко 1005.3 945.6
08 16.01 В 9 н/о н/о +34.3 -1.7 10 +31 +31 жарко 1005.2 945.5
09 16.01 В 7 н/о н/о +34.3 -1.7 10 +31 +31 жарко 1005.6 945.9
11 16.01 ЮВ 4 н/о н/о +29.1 -1.1 14 +26 +26 жарко 1006.3 946.6
12 16.01 ЮВ 3 н/о н/о +26.6 +1.1 19 +25 +25 комфорт 1007.0 947.2
14 16.01 В 1 н/о н/о +22.5 +8.6 41 +24 +24 комфорт 1007.6 947.8
15 16.01 штиль 0 н/о н/о +21.1 +8.7 45 +22 +22 комфорт 1007.1 947.3
17 16.01 З 2 н/о н/о +19.6 +7.4 45 +21 +21 комфорт 1006.2 946.5
18 16.01 З 3 н/о н/о +17.9 +8.2 53 +18 +18 1006.3 946.6
20 16.01 СЗ 3 н/о н/о +17.9 +7.9 52 +18 +18 1006.2 946.5
21 16.01 СЗ 3 н/о н/о +18.3 +7.7 50 +19 +19 1006.8 947.0
23 16.01 В 4 н/о н/о +29.6 +2.0 17 +27 +27 жарко 1007.0 947.2
00 17.01 В 6 н/о н/о +31.9 +1.1 14 +29 +29 жарко 1006.8 947.0
02 17.01 В 5 н/о н/о +35.4 +2.8 13 +32 +32 жарко 1006.1 946.4
03 17.01 В 6 н/о н/о +37.2 +5.3 14 +34 +34 очень
жарко
1005.5 945.8
05 17.01 ЮВ 6 н/о н/о +39.1 +4.5 12 +36 +36 очень
жарко
1004.1 944.5
06 17.01 СВ 4 н/о н/о +38.9 +4.4 12 +36 +36 очень
жарко
1003.1 943.6
08 17.01 В 7 н/о н/о +38.5 +4.1 12 +35 +35 очень
жарко
1002.4 942.9
09 17.01 СВ 7 н/о н/о +35.9 +7.9 18 +34 +34 очень
жарко
1003.3 943.7
11 17.01 СВ 10 н/о н/о +30.9 +9.2 26 +30 +30 жарко 1006.0 946.3
12 17.01 С 2 н/о н/о +30.3 +8.1 25 +29 +29 жарко 1005.9 946.2
14 17.01 СВ 9 н/о н/о +30.4 +8.2 25 +30 +30 жарко 1007.6 947.8
15 17.01 С 8 н/о н/о +28.9 +12.3 36 +30 +30 жарко 1007.2 947.4
17 17.01 С 2 н/о н/о +25.9 +13.7 47 +28 +28 жарко 1006.5 946.8
18 17.01 С 2 н/о н/о +25.4 +14.5 51 +28 +28 жарко 1006.5 946.8
20 17.01 СВ 3 н/о н/о +23.7 +14.1 55 +26 +26 жарко 1007.5 947.7
21 17.01 ЮВ 2 н/о н/о +23.5 +15.3 60 +26 +26 жарко 1008.3 948.4
23 17.01 С 3 н/о н/о +30.6 +11.5 31 +31 +31 жарко 1008.8 948.9
00 18.01 СВ 5 н/о н/о +33.1 +10.4 25 +33 +33 жарко 1008.8 948.9
02 18.01 СВ 6 н/о н/о +36.0 +9.5 20 +35 +35 очень
жарко
1008.0 948.2
03 18.01 В 7 н/о н/о +36.6 +9.2 19 +35 +35 очень
жарко
1007.3 947.5
05 18.01 СВ 8 н/о н/о +37.8 +8.6 17 +36 +36 очень
жарко
1006.1 946.4
06 18.01 В 7 н/о н/о +37.3 +6.3 15 +35 +35 очень
жарко
1005.3 945.6
08 18.01 ЮВ 6 н/о н/о +37.7 +3.4 12 +35 +35 очень
жарко
1004.6 945.0
09 18.01 В 5 н/о н/о +36.6 +4.8 14 +34 +34 очень
жарко
1005.0 945.3
11 18.01 В 4 н/о н/о +32.3 +5.0 18 +30 +30 жарко 1006.1 946.4
12 18.01 В 3 н/о н/о +30.7 +5.9 21 +29 +29 жарко 1006.8 947.0
14 18.01 СВ 2 н/о н/о +26.5 +8.0 31 +26 +26 жарко 1007.5 947.7
15 18.01 Ю 2 н/о н/о +25.6 +7.7 32 +26 +26 жарко 1007.2 947.4
17 18.01 С 4 н/о н/о +29.1 +14.5 41 +31 +31 жарко 1007.7 947.9
18 18.01 С 4 н/о н/о +28.2 +15.5 46 +31 +31 душно 1007.9 948.1
20 18.01 С 4 н/о н/о +26.9 +16.5 53 +30 +30 душно 1008.3 948.4
21 18.01 С 4 н/о н/о +26.9 +16.8 54 +31 +31 душно 1008.8 948.9
23 18.01 С 3 н/о н/о +30.9 +16.1 41 +34 +34 душно 1009.5 949.6
00 19.01 С 4 н/о н/о +32.6 +15.6 36 +35 +35 душно 1009.3 949.4
02 19.01 ЮВ 4 н/о н/о +35.3 +12.9 26 +36 +36 очень
жарко
1008.1 948.3
03 19.01 СВ 5 н/о н/о +35.6 +11.3 23 +35 +35 очень
жарко
1007.4 947.6
05 19.01 С 5 н/о н/о +35.4 +12.4 25 +35 +35 очень
жарко
1005.5 945.8
06 19.01 С 4 н/о н/о +36.3 +13.1 25 +37 +37 очень
жарко
1004.4 944.8
08 19.01 СЗ 3 н/о н/о +25.0 +19.8 73 +31 +31 очень
душно
1006.9 947.1
09 19.01 СВ 7 н/о н/о +27.1 +17.0 54 +31 +31 душно 1005.6 945.9
11 19.01 СВ 5 н/о н/о +27.1 +18.1 58 +32 +32 очень
душно
1007.7 947.9
12 19.01 СВ 4 н/о н/о +25.8 +18.0 62 +30 +30 душно 1008.3 948.4
14 19.01 С 3 н/о н/о +25.0 +17.5 63 +29 +29 душно 1008.4 948.5
15 19.01 Ю 1 н/о н/о +25.0 +17.2 62 +29 +29 душно 1007.9 948.1
17 19.01 Ю 3 н/о н/о +21.7 +17.7 78 +26 +26 душно 1006.7 946.9
18 19.01 штиль 0 н/о н/о +21.4 +18.4 83 +26 +26 душно 1006.5 946.8
20 19.01 СВ 1 н/о н/о +20.6 +17.8 84 +25 +25 комфорт 1007.4 947.6
21 19.01 штиль 0 н/о н/о +20.8 +18.9 89 +25 +25 комфорт 1007.7 947.9
23 19.01 ЮЗ 1 н/о н/о +28.4 +17.9 53 +33 +33 очень
душно
1008.7 948.8
00 20.01 Ю 2 н/о н/о +31.2 +13.9 35 +33 +33 жарко 1008.9 949.0
02 20.01 В 6 н/о н/о +34.7 +10.5 23 +34 +34 очень
жарко
1007.7 947.9
03 20.01 ЮВ 6 н/о н/о +35.7 +10.7 22 +35 +35 очень
жарко
1007.0 947.2
05 20.01 В 8 н/о н/о +38.3 +9.0 17 +37 +37 очень
жарко
1005.4 945.7
06 20.01 СВ 9 н/о н/о +37.5 +9.2 18 +36 +36 очень
жарко
1004.6 945.0
08 20.01 В 9 н/о н/о +37.7 +8.5 17 +36 +36 очень
жарко
1004.0 944.4
09 20.01 В 10 н/о н/о +35.5 +7.6 18 +34 +34 очень
жарко
1004.7 945.1
11 20.01 В 3 н/о н/о +32.4 +8.0 22 +31 +31 жарко 1005.4 945.7
12 20.01 СВ 1 н/о н/о +29.9 +8.3 26 +29 +29 жарко 1005.7 946.0
14 20.01 З 2 н/о н/о +26.2 +14.0 47 +28 +28 жарко 1005.9 946.2
15 20.01 штиль 0 н/о н/о +25.6 +13.5 47 +28 +28 жарко 1005.4 945.7
17 20.01 штиль 0 н/о н/о +25.1 +13.0 47 +27 +27 жарко 1004.4 944.8
18 20.01 СВ 2 н/о н/о +26.1 +8.6 33 +26 +26 жарко 1004.3 944.7
20 20.01 СВ 3 н/о н/о +23.2 +9.6 42 +25 +25 комфорт 1005.0 945.3
21 20.01 штиль 0 н/о н/о +23.2 +13.9 56 +27 +27 душно 1005.6 945.9
23 20.01 С 5 н/о н/о +31.8 +8.1 23 +31 +31 жарко 1006.3 946.6
00 21.01 С 4 н/о н/о +34.2 +8.8 21 +33 +33 жарко 1006.1 946.4
02 21.01 В 6 н/о н/о +37.8 +5.7 14 +35 +35 очень
жарко
1005.2 945.5
03 21.01 ЮВ 5 н/о н/о +38.6 +6.3 14 +36 +36 очень
жарко
1004.5 944.9
05 21.01 ЮВ 5 н/о н/о +39.9 +5.1 12 +37 +37 очень
жарко
1002.6 943.1
06 21.01 В 8 н/о н/о +40.2 +4.1 11 +37 +37 очень
жарко
1001.8 942.3
08 21.01 В 7 н/о н/о +39.5 +4.8 12 +37 +37 очень
жарко
1001.6 942.1
09 21.01 В 8 н/о н/о +38.4 +4.0 12 +35 +35 очень
жарко
1002.1 942.6
11 21.01 В 4 н/о н/о +33.8 +2.6 14 +31 +31 жарко 1003.5 943.9
12 21.01 В 3 н/о н/о +30.7 +3.7 18 +28 +28 жарко 1004.1 944.5
14 21.01 В 3 н/о н/о +27.0 +5.3 25 +26 +26 жарко 1004.6 945.0
15 21.01 штиль 0 н/о н/о +25.1 +7.7 33 +25 +25 комфорт 1004.4 944.8
17 21.01 З 3 н/о н/о +22.9 +7.1 36 +24 +24 комфорт 1003.7 944.1
18 21.01 СЗ 3 н/о н/о +22.5 +7.1 37 +23 +23 комфорт 1003.3 943.7
20 21.01 СЗ 2 н/о н/о +21.4 +6.9 39 +22 +22 комфорт 1004.0 944.4
21 21.01 штиль 0 н/о н/о +20.8 +8.4 45 +22 +22 комфорт 1004.6 945.0
23 21.01 С 5 н/о н/о +31.9 +10.6 27 +32 +32 жарко 1005.6 945.9
00 22.01 С 4 н/о н/о +34.5 +11.6 25 +34 +34 очень
жарко
1005.5 945.8
02 22.01 СВ 8 н/о н/о +38.7 +6.4 14 +36 +36 очень
жарко
1004.5 944.9
03 22.01 ЮВ 7 н/о н/о +39.4 +4.7 12 +36 +36 очень
жарко
1003.7 944.1
05 22.01 В 8 н/о н/о +40.5 +5.6 12 +38 +38 очень
жарко
1002.0 942.5
06 22.01 СВ 7 н/о н/о +40.8 +5.8 12 +38 +38 очень
жарко
1001.3 941.9
08 22.01 В 6 н/о н/о +39.8 +5.1 12 +37 +37 очень
жарко
1001.0 941.6
09 22.01 В 7 н/о н/о +38.4 +5.1 13 +36 +36 очень
жарко
1001.4 942.0
11 22.01 В 4 н/о н/о +34.9 +5.4 16 +32 +32 жарко 1002.8 943.3
12 22.01 СВ 3 н/о н/о +32.5 +5.9 19 +30 +30 жарко 1003.3 943.7
14 22.01 СВ 3 н/о н/о +31.5 +6.5 21 +30 +30 жарко 1003.3 943.7
15 22.01 СВ 2 н/о н/о +29.3 +7.2 25 +28 +28 жарко 1002.7 943.2
17 22.01 штиль 0 н/о н/о +26.3 +8.3 32 +26 +26 жарко 1002.3 942.8
18 22.01 штиль 0 н/о н/о +27.5 +8.4 30 +27 +27 жарко 1002.2 942.7
20 22.01 СЗ 4 н/о н/о +28.4 +10.1 32 +29 +29 жарко 1003.0 943.5
21 22.01 С 3 н/о н/о +28.0 +10.2 33 +28 +28 жарко 1003.9 944.3
23 22.01 З 4 н/о н/о +32.7 +9.5 24 +32 +32 жарко 1005.5 945.8
00 23.01 З 4 н/о н/о +34.9 +10.0 22 +34 +34 очень
жарко
1005.2 945.5
02 23.01 СВ 5 н/о н/о +38.0 +5.9 14 +35 +35 очень
жарко
1004.0 944.4

 

Местоположение метеостанции Alice Springs Airport (Северная территория, Австралия): широта -23.80 долгота 133.88 высота над уровнем моря 547 м.

В архиве по умолчанию представлена погода в Alice Springs Airport за последнюю неделю. Архивные данные за месяц целиком и за предыдущие месяцы, начиная с января 2011 года, Вы можете получить, выбрав интересующий диапазон дат из раскрывающегося списка и нажав кнопку "Ввод!".

Внимание! Время в таблицах - всемирное. Для получения местного времени необходимо прибавить поправку, которая в Alice Springs Airport равна 9.5 ч.

Смотрите также архив погоды в соседних городах и на ближайших метеорологических станциях:

Погода в Territory Grape Farm (Северная территория, Австралия) (152 км)
Погода в Jervois (Северная территория, Австралия) (250 км)
Погода в Pukatja (Южная Австралия, Австралия) (324 км)
Погода в Yulara Aero (Северная территория, Австралия) (332 км)
Погода в Oodnadatta Airport (Южная Австралия, Австралия) (446 км)
Погода в Wulungurru (Северная территория, Австралия) (464 км)
Погода в Tennant Creek Airport (Северная территория, Австралия) (465 км)
Погода в Rabbit Flat (Северная территория, Австралия) (566 км)
Погода в Giles Meteorologica (Западная Австралия, Австралия) (581 км)
Погода в Coober Pedy Airport (Южная Австралия, Австралия) (588 км)

Пояснения к столбцам:

Ветер - указаны скорость ветра в м/с - средняя за 10 мин, порывы в срок и между сроками (в фигурных скобках) и направление, откуда дует ветер: С - северный, СВ - северо-восточный, В - восточный, ЮВ - юго-восточный, Ю - южный, ЮЗ - юго-западный, З - западный, СЗ - северо-западный.
Видимость - горизонтальная дальность видимости в метрах или километрах. При видимости от 1 до 10 км при отсутствии осадков обычно наблюдается дымка, при ухудшении видимости до 1 км и менее - туман. В сухую погоду видимость может ухудшаться дымом, пылью или мглою.
Явления - указаны атмосферные явления, наблюдавшиеся в срок или в последний час перед сроком; фигурными скобками обозначены явления, наблюдавшиеся между сроками (за 1-3 часа до срока); квадратными скобками обозначены град или гололедные отложения с указанием их диаметра в мм.
Облачность - указаны через наклонную черту общая и нижняя облачность в баллах и высота нижней границы облаков в метрах; квадратными скобками обозначены формы облаков: Ci - перистые, Cs - перисто-слоистые, Cc - перисто-кучевые, Ac - высококучевые, As - высокослоистые, Sc - слоисто-кучевые, Ns - слоисто-дождевые, Cu - кучевые, Cb - кучево-дождевые. Подробнее классификацию облаков см. в Атласе облаков (PDF).
T - Температура воздуха - температура, измеренная на высоте 2 м над землей.
Td - Температура точки росы - температура, при понижении до которой содержащийся в воздухе водяной пар достигнет насыщения.
f - Относительная влажность воздуха - влажноcть воздуха, измеренная на высоте 2 м над землей.
Te - Эффективная температура - температура, которую ощущает одетый по сезону человек в тени. Характеристика душности погоды. При расчете учитывается влияние влажности воздуха и скорости ветра на теплоощущения человека.
Tes - Эффективная температура на солнце - температура, которую ощущает человек, с поправкой на солнечный нагрев. Характеристика знойности погоды. Зависит от высоты солнца над горизонтом, облачности и скорости ветра. Ночью, в пасмурную погоду, а также при ветре 12 м/с и более поправка равна нулю.
P - Атмосферное давление - приведенное к уровню моря атмосферное давление.
Po - Атмосферное давление - измеренное на уровне метеостанции атмосферное давление.
Tmin - Минимальная температура - минимум температуры воздуха на высоте 2 м над землей.
Tmax - Максимальная температура - максимум температуры воздуха на высоте 2 м над землей.
R - Количество осадков - Количество выпавших осадков за период времени, мм. При наведении курсора мыши на число - период времени, за который выпало указанное количество осадков.
R24 - Количество осадков - Количество выпавших осадков за 24 часа, мм.
S - Снежный покров - Высота снежного покрова, см. При наведении курсора мыши на число - состояние снежного покрова и степень покрытия местности в баллах.